Hourly Data Report for September 12, 2017

All times are specified in Local Standard Time (LST). Add 1 hour to adjust for Daylight Saving Time where and when it is observed.

KUGAARUK CLIMATE
NUNAVUT

68°32'15.060" N
89°47'47.020" W
15.80 m
2303094
71407
NBB

Download Data

Hourly Data (September 2017)
Hourly Data Report for September 12, 2017
Temp Definition
°C
Dew Point Temp Definition
°C
Rel Hum Definition
%
Wind Dir Definition
10's deg

Wind Spd Definition
km/h
Visibility Definition
km
Stn Press Definition
kPa
Hmdx Definition


Wind Chill Definition


Weather Definition


TIME
00:00 -0.7 -1.4 95 1 14   100.98   -5 LegendNANA
01:00 -0.4 -1.4 93 2 18   100.99   -5 LegendNANA
02:00 -1.0 -1.8 94 2 20   101.04   -7 LegendNANA
03:00 -1.8 -2.9 92 2 21   101.07   -8 LegendNANA
04:00 -1.6 -3.0 90 2 23   101.10   -8 LegendNANA
05:00 -1.9 -3.1 92 4 20   101.12   -8 LegendNANA
06:00 -1.8 -3.4 89 5 20   101.12   -8 LegendNANA
07:00 -1.7 -3.4 89 3 25   101.13   -8 LegendNANA
08:00 -1.3 -2.5 92 3 21   101.17   -7 LegendNANA
09:00 -1.0 -2.7 89 2 22   101.20   -7 LegendNANA
10:00 -0.8 -2.6 88 3 23   101.22   -7 LegendNANA
11:00 -0.6 -2.4 88 3 24   101.23   -7 LegendNANA
12:00 0.2 -2.0 85 4 21   101.26     LegendNANA
13:00 0.2 -1.7 87 3 20   101.28     LegendNANA
14:00 0.1 -1.3 90 2 16   101.32     LegendNANA
15:00 0.0 -1.5 90 2 17   101.36   -5 LegendNANA
16:00 -0.3 -1.6 91 2 17   101.39   -5 LegendNANA
17:00 -0.4 -1.5 92 2 18   101.42   -5 LegendNANA
18:00 -0.8 -1.6 94 3 14   101.46   -5 LegendNANA
19:00 -1.0 -1.5 97 3 18   101.47   -6 LegendNANA
20:00 -0.7 -1.1 97 3 15   101.48   -5 LegendNANA
21:00 -1.3 -1.7 97 2 12   101.49   -5 LegendNANA
22:00 -1.1 -1.5 97 3 14   101.51   -6 LegendNANA
23:00 -1.1 -1.4 98 1 11   101.52   -5 LegendNANA

Notes on Data Quality.

Legend

  • E = Estimated
  • M = Missing
  • NA = Not Available
  • ‡ = Partner data that is not subject to review by the National Climate Archives
Date modified: